• Join FlightAware (Why Join?)
  • Login
  • US Flag GB Flag 
17:25 EDT


 

Airport Tracker/Info


-or-


 

Live Flight TrackerFlight Track Log ✈ N884FT ✈ 05-Nov-2013 ✈ KPIE - KMLB

Flight Track Log - Related Links

Times and Time Zones

All times are in EST time to prevent confusion due to time zone crossing. See the N884FT flight status page for this flight to view local times or setup timezone preferences in your user account.

Time Position Orientation Groundspeed Altitude Reporting Facility
EST Latitude Longitude Course Direction KTS MPH feet Rate Location/Type
21:08 27.9833 -82.7167 81° East 103 119 2,200  Level Tampa TRACON
21:09 27.9833 -82.7000 90° East 78 90 2,600 420 Climbing Tampa TRACON
21:10 27.9833 -82.6833 90° East 84 97 3,100 180 Climbing Tampa TRACON
21:11 27.9833 -82.6333 90° East 120 138 3,100  Level Tampa TRACON
21:11 27.9833 -82.6167 90° East 114 131 3,100  Level Tampa TRACON
21:12 27.9833 -82.5667 90° East 113 130 3,100 -60 Level Tampa TRACON
21:13 27.9327 -82.4043 81° East  Level FlightAware Approximate
21:14 27.9667 -82.5333 120° Southeast 117 135 3,000  Level Tampa TRACON
21:15 27.9667 -82.5000 90° East 113 130 3,000  Level Tampa TRACON
21:16 27.9667 -82.4667 90° East 111 128 3,000  Level Tampa TRACON
21:16 27.9667 -82.4333 90° East 119 137 3,000  Level Tampa TRACON
21:18 27.9667 -82.4000 90° East 108 124 3,000 180 Level Tampa TRACON
21:19 27.9667 -82.3667 90° East 97 112 3,400 540 Climbing Tampa TRACON
21:20 27.9667 -82.3333 90° East 84 97 4,300 660 Climbing Tampa TRACON
21:21 27.9667 -82.3167 90° East 92 106 4,800 600 Climbing Tampa TRACON
21:22 27.9667 -82.2833 90° East 97 112 5,500 600 Climbing Tampa TRACON
21:23 27.9667 -82.2500 90° East 104 120 6,000 120 Climbing Tampa TRACON
21:24 27.9667 -82.2167 90° East 80 92 5,800 -240 Descending Tampa TRACON
21:25 27.9667 -82.2000 90° East 84 97 5,600 180 Descending Tampa TRACON
21:26 27.9833 -82.1667 60° Northeast 101 116 6,200 600 Climbing Tampa TRACON
21:27 27.9833 -82.1333 90° East 105 121 6,800 540 Climbing Tampa TRACON
21:28 27.9833 -82.1000 90° East 113 130 7,300 480 Climbing Tampa TRACON
21:29 27.9833 -82.0667 90° East 118 136 7,800 360 Climbing Tampa TRACON
21:30 27.9833 -82.0000 90° East 129 148 8,400 300 Climbing Orlando TRACON
21:31 28.0000 -81.9500 69° East 143 165 8,700 240 Climbing Orlando TRACON
21:32 28.0000 -81.9000 90° East 132 152 9,000 120 Climbing Orlando TRACON
21:33 28.0167 -81.8667 60° Northeast 140 161 9,000  Level Orlando TRACON
21:34 28.0167 -81.8167 90° East 149 171 9,000  Level Orlando TRACON
21:35 28.0167 -81.7833 90° East 159 183 9,000  Level Orlando TRACON
21:36 28.0333 -81.7333 69° East 165 190 9,100 -60 Climbing Orlando TRACON
21:37 28.0333 -81.6667 90° East 163 188 8,900 -360 Descending Orlando TRACON
21:38 28.0333 -81.6167 90° East 171 197 8,400 -600 Descending Orlando TRACON
21:39 28.0500 -81.5667 69° East 176 203 7,800 -720 Descending Orlando TRACON
21:40 28.0500 -81.5167 90° East 170 196 7,000 -720 Descending Orlando TRACON
21:41 28.0667 -81.4667 69° East 139 160 6,400 -660 Descending Orlando TRACON
21:42 28.0667 -81.4167 90° East 134 154 5,700 -600 Descending Orlando TRACON
21:43 28.0667 -81.3833 90° East 135 155 5,200 -360 Descending Orlando TRACON
21:44 28.0667 -81.3500 90° East 116 133 5,000 -120 Descending Orlando TRACON
21:45 28.0833 -81.3000 69° East 119 137 5,000 -60 Level Orlando TRACON
21:46 28.0833 -81.2667 90° East 119 137 4,900 -360 Descending Orlando TRACON
21:47 28.0833 -81.2333 90° East 125 144 4,300 -480 Descending Orlando TRACON
21:48 28.0833 -81.2000 90° East 117 135 4,000 -240 Descending Orlando TRACON
21:49 28.0833 -81.1500 90° East 116 133 3,900 -300 Descending Orlando TRACON
21:50 28.0833 -81.1167 90° East 120 138 3,400 -480 Descending Orlando TRACON
21:51 28.0833 -81.0833 90° East 116 133 3,000 -240 Descending Orlando TRACON
21:52 28.0833 -81.0500 90° East 104 120 3,000  Level Orlando TRACON
21:53 28.0833 -81.0167 90° East 116 133 3,000  Level Orlando TRACON
21:54 28.0833 -80.9833 90° East 114 131 3,000 -180 Level Orlando TRACON
21:55 28.0667 -80.9500 120° Southeast 119 137 2,700 -540 Descending Orlando TRACON
21:56 28.0667 -80.9167 90° East 114 131 2,000 -540 Descending Orlando TRACON
21:57 28.0667 -80.8833 90° East 96 110 1,700 -300 Descending Orlando TRACON
21:58 28.0667 -80.8500 90° East 83 96 1,500  Descending Orlando TRACON
21:59 28.0833 -80.8333 41° Northeast 85 98 1,700 -180 Climbing Orlando TRACON
22:00 28.0833 -80.8000 90° East 87 100 1,200 -360 Descending Orlando TRACON
22:01 28.0833 -80.7833 90° East 73 84 1,000 -120 Descending Orlando TRACON
22:02 28.0833 -80.7500 90° East 76 87 1,000 -120 Level Orlando TRACON
22:03 28.1000 -80.7333 41° Northeast 80 92 800 -240 Descending Orlando TRACON
22:04 28.1000 -80.7000 90° East 86 99 600 -180 Descending Orlando TRACON
22:05 28.1000 -80.6833 90° East 67 77 500 -120 Descending Orlando TRACON